#timestamp,LO_Frequency,Hit,Temp,Hum 
1478127615.4,286047034.5,N,0.0,0.0
1478127635.2,286047032.8,N,0.0,0.0
1478127655.0,286047030.7,N,0.0,0.0
1478127655.9,286047030.7,N,0.0,0.0
1478127675.8,286047031.8,N,0.0,0.0
1478127695.6,286047033.1,N,0.0,0.0
1478127715.4,286047032.8,N,0.0,0.0
1478127735.3,286047030.4,N,0.0,0.0
1478127755.1,286047030.1,N,0.0,0.0
1478127775.8,286047033.2,N,0.0,0.0
1478127795.7,286047030.6,N,0.0,0.0
1478127815.5,286047030.2,N,0.0,0.0
1478127835.3,286047032.5,N,0.0,0.0
1478127855.2,286047032.7,N,0.0,0.0
1478127875.0,286047030.4,N,0.0,0.0
1478127875.9,286047030.4,N,0.0,0.0
1478127895.8,286047032.6,N,0.0,0.0
1478127915.6,286047029.4,N,0.0,0.0
1478127935.4,286047030.1,N,0.0,0.0
1478127955.3,286047032.3,N,0.0,0.0
1478127975.1,286047031.7,N,0.0,0.0
1478127976.0,286047031.7,N,0.0,0.0
1478127995.8,286047032.7,N,0.0,0.0
1478128015.7,286047032.3,N,0.0,0.0
1478128035.5,286047032.6,N,0.0,0.0
1478128055.3,286047032.6,N,0.0,0.0
1478128075.2,286047032.2,N,0.0,0.0
1478128095.0,286047032.9,N,0.0,0.0
1478128095.9,286047032.9,N,0.0,0.0
1478128115.7,286047033.0,N,0.0,0.0
1478128135.6,286047032.3,N,0.0,0.0
1478128155.4,286047032.9,N,0.0,0.0
1478128175.2,286047032.5,N,0.0,0.0
1478128195.1,286047030.2,N,0.0,0.0
1478128196.0,286047030.2,N,0.0,0.0
1478128215.8,286047032.0,N,0.0,0.0
1478128235.7,286047033.0,N,0.0,0.0
1478128255.5,286047031.2,N,0.0,0.0
1478128275.3,286047030.8,N,0.0,0.0
1478128295.2,286047032.4,N,0.0,0.0
1478128315.9,286047032.0,N,0.0,0.0
1478128335.7,286047031.7,N,0.0,0.0
1478128355.6,286047032.4,N,0.0,0.0
1478128375.4,286047032.4,N,0.0,0.0
1478128395.2,286047031.9,N,0.0,0.0
1478128415.1,286047034.7,N,0.0,0.0
1478128416.0,286047034.7,N,0.0,0.0
1478128435.8,286047032.1,N,0.0,0.0
1478128455.6,286047030.5,N,0.0,0.0
1478128475.5,286047031.4,N,0.0,0.0
1478128495.3,286047030.7,N,0.0,0.0
1478128515.1,286047032.1,N,0.0,0.0
1478128535.9,286047032.6,N,0.0,0.0
1478128555.7,286047028.8,N,0.0,0.0
1478128575.6,286047029.8,N,0.0,0.0
1478128595.4,286047028.6,N,0.0,0.0
1478128615.2,286047030.3,N,0.0,0.0
1478128635.1,286047030.2,N,0.0,0.0
1478128636.0,286047030.2,N,0.0,0.0
1478128655.8,286047034.4,N,0.0,0.0
1478128675.6,286047033.0,N,0.0,0.0
1478128695.5,286047033.1,N,0.0,0.0
1478128715.3,286047032.8,N,0.0,0.0
1478128735.1,286047034.8,N,0.0,0.0
1478128755.9,286047034.6,N,0.0,0.0
1478128775.7,286047034.4,N,0.0,0.0
1478128795.5,286047034.4,N,0.0,0.0
1478128815.4,286047034.5,N,0.0,0.0
1478128835.2,286047033.4,N,0.0,0.0
1478128855.0,286047036.2,N,0.0,0.0
1478128856.0,286047036.2,N,0.0,0.0
1478128875.8,286047034.1,N,0.0,0.0
1478128895.6,286047034.1,N,0.0,0.0
1478128915.5,286047034.6,N,0.0,0.0
1478128935.3,286047033.1,N,0.0,0.0
1478128955.1,286047031.7,N,0.0,0.0
1478128975.9,286047034.1,N,0.0,0.0
1478128995.7,286047035.9,N,0.0,0.0
1478129015.5,286047036.1,N,0.0,0.0
1478129035.4,286047033.7,N,0.0,0.0
1478129055.2,286047037.9,N,0.0,0.0
1478129075.0,286047036.3,N,0.0,0.0
1478129075.9,286047036.3,N,0.0,0.0
1478129095.8,286047034.1,N,0.0,0.0
1478129115.6,286047034.2,N,0.0,0.0
1478129135.4,286047034.0,N,0.0,0.0
1478129155.3,286047033.6,N,0.0,0.0
1478129175.1,286047033.7,N,0.0,0.0
1478129195.9,286047033.5,N,0.0,0.0
1478129215.7,286047033.9,N,0.0,0.0
1478129235.5,286047031.7,N,0.0,0.0
1478129255.4,286047034.3,N,0.0,0.0
1478129275.2,286047034.4,N,0.0,0.0
1478129295.0,286047033.6,N,0.0,0.0
1478129295.9,286047033.6,N,0.0,0.0
1478129315.8,286047034.0,N,0.0,0.0
1478129335.6,286047034.4,N,0.0,0.0
1478129355.4,286047031.7,N,0.0,0.0
1478129375.3,286047034.6,N,0.0,0.0
1478129395.1,286047032.0,N,0.0,0.0
1478129415.8,286047032.1,N,0.0,0.0
1478129435.7,286047033.5,N,0.0,0.0
1478129455.5,286047036.4,N,0.0,0.0
1478129475.3,286047033.9,N,0.0,0.0
1478129495.2,286047033.5,N,0.0,0.0
1478129515.0,286047036.4,N,0.0,0.0
1478129515.9,286047036.4,N,0.0,0.0
1478129535.8,286047033.3,N,0.0,0.0
1478129555.6,286047033.4,N,0.0,0.0
1478129575.4,286047036.3,N,0.0,0.0
1478129595.3,286047035.0,N,0.0,0.0
1478129615.1,286047035.1,N,0.0,0.0
1478129616.0,286047035.1,N,0.0,0.0
1478129635.8,286047035.1,N,0.0,0.0
1478129655.7,286047035.7,N,0.0,0.0
1478129675.5,286047036.0,N,0.0,0.0
1478129695.3,286047036.0,N,0.0,0.0
1478129715.2,286047038.0,N,0.0,0.0
1478129735.0,286047032.2,N,0.0,0.0
1478129735.9,286047032.2,N,0.0,0.0
1478129755.7,286047035.1,N,0.0,0.0
1478129775.6,286047038.0,N,0.0,0.0
1478129795.4,286047035.5,N,0.0,0.0
1478129815.3,286047035.1,N,0.0,0.0
1478129835.1,286047035.3,N,0.0,0.0
1478129836.0,286047035.3,N,0.0,0.0
1478129855.8,286047035.8,N,0.0,0.0
1478129875.7,286047034.9,N,0.0,0.0
1478129895.5,286047035.2,N,0.0,0.0
1478129915.3,286047035.2,N,0.0,0.0
1478129935.2,286047037.8,N,0.0,0.0
1478129955.9,286047036.7,N,0.0,0.0
1478129975.7,286047038.0,N,0.0,0.0
1478129995.6,286047035.2,N,0.0,0.0
1478130015.4,286047037.9,N,0.0,0.0
1478130035.2,286047037.8,N,0.0,0.0
1478130055.1,286047035.6,N,0.0,0.0
1478130056.0,286047035.6,N,0.0,0.0
1478130075.8,286047036.1,N,0.0,0.0
1478130095.6,286047035.4,N,0.0,0.0
1478130115.5,286047038.0,N,0.0,0.0
1478130135.3,286047037.6,N,0.0,0.0
1478130155.2,286047035.8,N,0.0,0.0
1478130175.9,286047036.0,N,0.0,0.0
1478130195.7,286047037.1,N,0.0,0.0
1478130215.6,286047038.0,N,0.0,0.0
1478130235.4,286047037.7,N,0.0,0.0
1478130255.2,286047034.6,N,0.0,0.0
1478130275.1,286047035.5,N,0.0,0.0
1478130276.0,286047035.5,N,0.0,0.0
1478130295.8,286047038.3,N,0.0,0.0
1478130315.6,286047036.9,N,0.0,0.0
1478130335.5,286047036.9,N,0.0,0.0
1478130355.3,286047037.0,N,0.0,0.0
1478130375.1,286047039.3,N,0.0,0.0
1478130395.9,286047039.0,N,0.0,0.0
1478130415.7,286047036.7,N,0.0,0.0
1478130435.5,286047036.8,N,0.0,0.0
1478130455.4,286047037.6,N,0.0,0.0
1478130475.2,286047037.5,N,0.0,0.0
1478130495.1,286047036.6,N,0.0,0.0
1478130496.0,286047036.6,N,0.0,0.0
1478130515.8,286047036.9,N,0.0,0.0
1478130535.6,286047037.7,N,0.0,0.0
1478130555.5,286047037.8,N,0.0,0.0
1478130575.3,286047037.1,N,0.0,0.0
1478130595.1,286047038.5,N,0.0,0.0
1478130615.9,286047038.8,N,0.0,0.0
1478130635.7,286047039.0,N,0.0,0.0
1478130655.5,286047035.7,N,0.0,0.0
1478130675.4,286047035.4,N,0.0,0.0
1478130695.2,286047035.7,N,0.0,0.0
1478130715.0,286047035.5,N,0.0,0.0
1478130716.0,286047035.5,N,0.0,0.0
1478130735.8,286047035.7,N,0.0,0.0
1478130755.6,286047035.7,N,0.0,0.0
1478130775.5,286047033.3,N,0.0,0.0
1478130795.3,286047037.6,N,0.0,0.0
1478130815.1,286047036.1,N,0.0,0.0
1478130835.9,286047037.5,N,0.0,0.0
1478130855.7,286047034.9,N,0.0,0.0
1478130875.5,286047038.0,N,0.0,0.0
1478130895.4,286047037.2,N,0.0,0.0
1478130915.2,286047036.5,N,0.0,0.0
1478130935.0,286047035.6,N,0.0,0.0
1478130935.9,286047035.6,N,0.0,0.0
1478130955.8,286047035.3,N,0.0,0.0
1478130975.6,286047034.9,N,0.0,0.0
1478130995.4,286047037.1,N,0.0,0.0
1478131015.3,286047034.9,N,0.0,0.0
1478131035.1,286047039.5,N,0.0,0.0
1478131055.9,286047039.1,N,0.0,0.0
1478131075.7,286047037.4,N,0.0,0.0
1478131095.5,286047037.9,N,0.0,0.0
1478131115.4,286047037.5,N,0.0,0.0
1478131135.2,286047037.6,N,0.0,0.0
1478131155.0,286047035.1,N,0.0,0.0
1478131155.9,286047035.1,N,0.0,0.0
1478131175.8,286047035.8,N,0.0,0.0
1478131195.6,286047037.5,N,0.0,0.0
